DELTA 1 DEB

Satellite information

Favourite Embed

Satellite Type and Status

DEBRISIN ORBIT

Key statistics

Satellite DELTA 1 DEB at a glance.

Uptime

17451

Days in orbit

Revolutions

≈ 14.5

Per day

Orbit

SSO

Sun Synchronous Orbit

Inclination

98.9

Latest

Satellite identification and parameters

Extended collection of information and parameters for DELTA 1 DEB.

Object identification

Identified? True

Debris? True

Object name: DELTA 1 DEB

International designator: 1978-026HN

Object number (NORAD): 19594

Object ID (CCSDS): 19594

Country: UNITED STATES OF AMERICA (US)

Current information (Y/N): Y

RCS size: SMALL

Orbital parameters

Period: 99.326 minutes

Inclination: 98.8948 deg

SMA: 7104.535 km

Apoapsis: 777.55 km

Periapsis: 675.249 km

RAAN: 33.5086 deg

Eccentricy: 0.00719969

Argument of periapsis: 345.132 deg

Mean anomaly: 14.7755 deg

Mean motion: 14.49770691 rev/day

Mean motion (dot): 0.0001434 rev/day2

B* drag term: 0.0036054805 1/REarth

Two-line elements (TLE)

Creation date: Dec. 14, 2025, 3:07 a.m.

Reference frame: TEME

Reference center: EARTH

Epoch: Dec. 13, 2025, 1:58 p.m. UTC

TLE line 0: 0 DELTA 1 DEB

TLE line 1: 1 19594U 78026HN 25347.58207866 .00014340 00000-0 36055-2 0 9997

TLE line 2: 2 19594 98.8948 33.5086 0071997 345.1320 14.7755 14.49770691679247

Live tracking on map

Real-time ground track for satellite DELTA 1 DEB.

In-orbit conjunctions

A list of the most updated potential collisions computed for object DELTA 1 DEB.

Target Orbit TCA Probability of collision Miss distance Type
TRIAD 1 SSO 2025-10-19 05:12:09 0.0004962008 494.0 (m) PAYLOAD

Associated space launch

Earth observation satellite

DELTA 1 DEB was lifted into orbit during the mission ‘Delta 2910 | Landsat 3’, on board a Delta 2910 space rocket.

The launch took place on March 5, 1978, 5:54 p.m. from Space Launch Complex 2W.

For more information about the launch, click the button.

Launch to space Delta 2910 | Landsat 3
Delta 2910 | Landsat 3

Agency: N/A

Status: Launch Successful

Launch date: March 5, 1978, 5:54 p.m. UTC

Rocket: Delta 2910

Launch pad: Space Launch Complex 2W

Location: Vandenberg SFB, CA, USA

...

Latest news about this satellite

There are no fresh news available about this satellite. Check back as we update our databases every day.


Newsletter sign-up

Weekly statistics, charts and insights to help you stay on top of the space industry.